#timestamp,LO_Frequency,Hit,StdDev 
1713672015.3,286047000.4,N
1713672035.2,286047003.2,N
1713672055.0,286047001.4,N
1713672055.9,286047001.4,N
1713672075.8,286046998.9,N
1713672095.6,286047003.6,N
1713672115.4,286047006.5,Y
1713672135.3,286047005.4,P
1713672155.1,286047002.5,N
1713672175.9,286047002.8,N
1713672195.7,286047007.4,Y
1713672215.5,286047010.6,P
1713672235.4,286047009.3,N
1713672255.2,286047013.4,P
1713672275.0,286047014.6,Y
1713672275.9,286047014.6,P
1713672295.8,286047000.3,N
1713672315.6,286046999.4,N
1713672335.5,286046993.5,N
1713672355.3,286046997.2,N
1713672375.1,286046997.8,N
1713672395.9,286046999.0,N
1713672415.7,286046993.8,N
1713672435.5,286046997.3,N
1713672455.4,286046997.0,N
1713672475.2,286047000.8,N
1713672495.1,286046998.4,N
1713672496.0,286046998.4,N
1713672515.8,286046999.5,N
1713672535.6,286046993.8,N
1713672555.5,286046991.4,N
1713672575.3,286046995.6,N
1713672595.1,286046996.3,N
1713672615.9,286046991.5,N
1713672635.7,286046992.3,N
1713672655.6,286046979.3,Y
1713672675.4,286046989.6,P
1713672695.2,286046988.9,N
1713672715.1,286046994.7,N
1713672716.0,286046994.7,N
1713672735.8,286046994.2,N
1713672755.7,286046999.6,N
1713672775.5,286047001.0,N
1713672795.3,286046997.7,N
1713672815.2,286046997.9,N
1713672835.0,286046993.6,N
1713672835.9,286046993.6,N
1713672855.7,286046999.3,N
1713672875.6,286046999.0,N
1713672895.4,286046999.1,N
1713672915.3,286047002.2,N
1713672935.1,286047000.2,N
1713672955.8,286047002.4,N
1713672975.7,286047001.6,N
1713672995.5,286047006.2,N
1713673015.4,286047011.1,N
1713673035.2,286047007.9,N
1713673055.0,286047007.3,N
1713673055.9,286047007.3,N
1713673075.8,286047005.5,N
1713673095.6,286047001.9,N
1713673115.4,286047002.8,N
1713673135.3,286047001.1,N
1713673155.1,286047000.2,N
1713673175.9,286047001.0,N
1713673195.7,286046992.1,N
1713673215.5,286046995.0,N
1713673235.4,286046994.9,N
1713673255.2,286046997.0,N
1713673275.0,286046995.5,N
1713673275.9,286046995.5,N
1713673295.8,286046993.5,N
1713673315.6,286046993.4,N
1713673335.5,286046998.0,N
1713673355.3,286046997.4,N
1713673375.1,286046996.4,N
1713673395.9,286046992.7,N
1713673415.7,286046992.4,N
1713673435.5,286046994.9,N
1713673455.4,286046990.3,N
1713673475.2,286046994.4,N
1713673495.1,286046996.4,N
1713673496.0,286046996.4,N
1713673515.8,286046996.2,N
1713673535.6,286046992.4,N
1713673555.5,286046990.8,N
1713673575.3,286046986.9,N
1713673595.1,286046982.8,Y
1713673615.9,286046985.4,P
1713673635.7,286046984.1,N
1713673655.6,286046986.4,N
1713673675.4,286046988.0,N
1713673695.2,286046989.7,N
1713673715.1,286046988.1,N
1713673716.0,286046988.1,Y
1713673735.8,286046999.4,P
1713673755.6,286047001.3,N
1713673775.5,286047005.2,N
1713673795.3,286047009.1,N
1713673815.2,286047006.6,N
1713673835.9,286047006.6,N
1713673855.7,286047003.5,N
1713673875.6,286047000.6,N
1713673895.4,286046998.3,N
1713673915.2,286047001.7,N
1713673935.1,286047004.1,N
1713673936.0,286047004.1,N
1713673955.8,286046997.4,N
1713673975.7,286046994.0,N
1713673995.5,286046996.4,N
1713674015.3,286046996.7,N
1713674035.2,286046993.8,N
1713674055.9,286046990.1,N
1713674075.7,286046992.7,N
1713674095.6,286046988.6,N
1713674115.4,286046983.8,N
1713674135.2,286046984.4,N
1713674155.1,286046989.7,N
1713674156.0,286046989.7,N
1713674175.8,286046984.3,N
1713674195.7,286046988.2,N
1713674215.5,286046982.6,N
1713674235.3,286046978.0,N
1713674255.2,286046981.3,N
1713674275.0,286046976.8,N
1713674275.9,286046976.8,N
1713674295.7,286046986.3,N
1713674315.6,286046986.3,N
1713674335.4,286046985.0,N
1713674355.3,286046986.0,N
1713674375.1,286046987.4,N
1713674376.0,286046987.4,N
1713674395.8,286046981.7,N
1713674415.7,286046983.1,N
1713674435.5,286046984.0,N
1713674455.3,286046989.7,N
1713674475.2,286046990.4,N
1713674495.0,286046991.2,N
1713674495.9,286046991.2,N
1713674515.8,286046982.2,Y
1713674535.6,286046999.5,P
1713674555.4,286046995.0,N
1713674575.3,286046999.1,N
1713674595.1,286046993.2,N
1713674615.9,286046992.1,N
1713674635.7,286046992.3,N
1713674655.5,286046992.9,N
1713674675.4,286046994.9,N
1713674695.2,286046995.3,N
1713674715.0,286046998.0,N
1713674715.9,286046998.0,N
1713674735.8,286046987.0,Y
1713674755.6,286046990.4,P
1713674775.5,286046996.4,N
1713674795.3,286046995.2,N
1713674815.1,286046995.1,N
1713674835.9,286046997.0,N
1713674855.7,286047001.9,N
1713674875.5,286047002.2,N
1713674895.4,286047004.4,N
1713674915.2,286047007.6,N
1713674935.1,286047007.9,N
1713674936.0,286047007.9,N
1713674955.8,286047013.3,N
1713674975.6,286047008.2,N
1713674995.5,286047007.3,N
1713675015.3,286047004.5,N
1713675035.2,286046996.8,N
1713675055.9,286046995.9,N
1713675075.7,286046989.9,N
1713675095.6,286046991.3,N
1713675115.4,286046985.9,N
1713675135.2,286046982.2,N
1713675155.1,286046983.2,N
1713675156.0,286046983.2,N
1713675175.8,286046988.6,N
1713675195.7,286046991.5,N
1713675215.5,286046995.4,N
1713675235.3,286046997.0,N
1713675255.2,286046995.6,N
1713675275.9,286046997.0,N
1713675295.7,286046998.8,N
1713675315.6,286047001.9,N
1713675335.4,286046998.5,N
1713675355.2,286047003.5,N
1713675375.1,286047005.0,N
1713675376.0,286047005.0,N
1713675395.8,286047009.1,N
1713675415.7,286047003.1,N
1713675435.5,286047002.0,N
1713675455.3,286047001.7,N
1713675475.2,286046996.9,N
1713675495.0,286046991.7,N
1713675495.9,286046991.7,N
1713675515.7,286046997.7,N
1713675535.6,286046995.1,N
1713675555.4,286047000.6,N
1713675575.3,286046998.5,N
1713675595.1,286046999.5,N
1713675596.0,286046999.5,N
